Hulianwang W. Digui 12-01

operational
NORAD ID: 65995 Int'l Des: 2025-231 Owner: ZXW Country: CN Constellation: xingwang
NOTLE

About Hulianwang W. Digui 12-01

Description loading...

Live Position

Loading 3D Globe...

Upcoming Passes

Altitude History

Altitude vs Time

uPlot chart will show altitude changes over time

Two-Line Element Set

1 65995U 25231A 25317.94083907 .00000186 00000-0 23335-3 0 9999
2 65995 50.0063 240.2168 0001085 209.5871 150.4970 13.98297035 4062
Epoch: Nov 13, 2025 • Age: 29 hours

Current Status

Altitude 913.4 km
Velocity 7.40 km/s
Sub-Earth Point -43.59°S, 5.76°E
Launch Date Oct 16, 2025
Age 30 days
Type other

Technical Details

Classification Payload
Mass 800.00 kg
Dry Mass 800.00 kg
Total Mass 800.00 kg
Length 3.00 m
Diameter 1.00 m
Span 10.00 m
Shape Box + 2 Pan
Manufacturer CAST
Bus Type Guowang C
Phase Status In Orbit
Owner/State ZXW/CN

Large Constellations

Loading constellations...